Regional Weather Roundup
Issued by NWS

Home | Current Version | Previous Version | Graphics & Text | Print | Product List | Glossary On
Versions: 1 2 3 4 5 6 7 8 9 10 11 12 13 14 15 16 17 18 19 20 21 22 23 24 25 26 27 28 29 30 31 32 33 34 35 36 37 38 39 40 41 42 43 44 45 46 47 48 49 50
000
ASUS43 KOAX 240602
RWRNE

WEATHER ROUNDUP FOR NEBRASKA
NATIONAL WEATHER SERVICE OMAHA NE
100 AM CDT FRI MAR 24 2017

NOTES: SATELLITE DATA IS BEING USED TO AUGMENT CLOUD COVER ABOVE
       12000 FEET.
       "FAIR" INDICATES FEW OR NO CLOUDS BELOW 12,000 FEET WITH NO
       SIGNIFICANT WEATHER AND/OR OBSTRUCTIONS TO VISIBILITY.

  * THESE STATIONS DO NOT REPORT WEATHER SUCH AS RAIN...SNOW OR FOG.

NEZ001>004-019>022-054>056-240700-
NEBRASKA PANHANDLE

CITY           SKY/WX    TMP DP  RH WIND       PRES   REMARKS
SCOTTSBLUFF    CLOUDY    43  39  86 N20G28    29.85F
6HR MIN TEMP:  43; 6HR MAX TEMP:  61; 6HR PCP:  0.06;

ALLIANCE       CLOUDY    42  40  92 N25G31    29.84R
6HR MIN TEMP:  42; 6HR MAX TEMP:  60; 6HR PCP:  0.11;

CHADRON        CLOUDY    43  38  82 N21       29.90R
6HR MIN TEMP:  43; 6HR MAX TEMP:  49; 6HR PCP:  0.08;

KIMBALL        CLOUDY    42  42 100 N22G30    29.80R
SIDNEY         CLOUDY    45  41  86 NE25G31   29.76F
6HR MIN TEMP:  45; 6HR MAX TEMP:  69; 6HR PCP: TRACE;

$$

NEZ057>060-069>072-079>082-240700-
SOUTHWEST NEBRASKA

CITY           SKY/WX    TMP DP  RH WIND       PRES   REMARKS
NORTH PLATTE   CLOUDY    54  48  80 NE24G38   29.68R
6HR MIN TEMP:  54; 6HR MAX TEMP:  69; 6HR PCP:  0.77;

IMPERIAL       CLOUDY    53  43  68 NE31G43   29.71R THUNDER
6HR MIN TEMP:  53; 6HR MAX TEMP:  76; 6HR PCP: TRACE;

LEXINGTON      CLOUDY    55  51  87 NE25G33   29.67F
MCCOOK         CLOUDY    60  50  69 SE7       29.70R
6HR MIN TEMP:  59; 6HR MAX TEMP:  82;

OGALLALA       LGT RAIN  49  46  88 N18G30    29.77F
$$

NEZ005>010-023>029-035>040-094-240700-
NORTH CENTRAL NEBRASKA

CITY           SKY/WX    TMP DP  RH WIND       PRES   REMARKS
VALENTINE      LGT RAIN  46  38  73 N14       29.84R
6HR MIN TEMP:  46; 6HR MAX TEMP:  65; 6HR PCP: TRACE;

AINSWORTH      RAIN      48  48 100 N8        29.82R
BROKEN BOW     LGT RAIN  53  52  96 NE20      29.71F
6HR MIN TEMP:  49; 6HR MAX TEMP:  67; 6HR PCP:  1.99;

O`NEILL        RAIN      51  51  99 N9        29.80R
ORD            LGT RAIN  54  52  93 N9        29.72F FOG
6HR MIN TEMP:  53; 6HR MAX TEMP:  64; 6HR PCP:  0.91;

THEDFORD       RAIN      52  51  97 NE13      29.79F
$$

NEZ041-046>049-061>064-073>077-083>087-240700-
SOUTH CENTRAL NEBRASKA

CITY           SKY/WX    TMP DP  RH WIND       PRES   REMARKS
GRAND ISLAND   RAIN      58  54  86 W14       29.73R
6HR MIN TEMP:  58; 6HR MAX TEMP:  73; 6HR PCP:  0.03;

AURORA         LGT RAIN  59  55  85 W8        29.68S
HASTINGS       CLOUDY    62  53  72 S9        29.69R
6HR MIN TEMP:  58; 6HR MAX TEMP:  74; 6HR PCP:  0.07;

HEBRON         LGT RAIN  68  48  48 S10G16    29.69R
HOLDREGE       CLOUDY    60  50  70 S20G28    29.65R
KEARNEY *      CLOUDY    57  50  77 N17G23    29.71F
YORK           CLOUDY    61  55  82 S8        29.68F
$$

NEZ011>018-030>034-042>045-240700-
NORTHEAST NEBRASKA

CITY           SKY/WX    TMP DP  RH WIND       PRES   REMARKS
NORFOLK        RAIN      55  52  89 N6        29.72R FOG
6HR MIN TEMP:  55; 6HR MAX TEMP:  63; 6HR PCP:  0.13;

ALBION         LGT RAIN  56  53  87 NE10      29.73R
BLAIR          CLOUDY    70  51  50 S18       29.69S
FREMONT        CLOUDY    68  49  50 SW12      29.72R
TEKAMAH        LGT RAIN  63  50  62 S9        29.69R
6HR MIN TEMP:  57; 6HR MAX TEMP:  68; 6HR PCP: TRACE;

WAYNE          LGT RAIN  52  52  99 N5        29.73S
$$

NEZ050>053-065>068-078-088>093-240700-
SOUTHEAST NEBRASKA

CITY           SKY/WX    TMP DP  RH WIND       PRES   REMARKS
LINCOLN        CLOUDY    69  50  50 S15       29.69R
6HR MIN TEMP:  69; 6HR MAX TEMP:  72; 6HR PCP: TRACE;

OMAHA EPPLEY   CLOUDY    71  49  45 S22G30    29.67R
6HR MIN TEMP:  70; 6HR MAX TEMP:  74; 6HR PCP: TRACE;

BEATRICE       CLOUDY    70  51  51 S15G23    29.69S
FALLS CITY     MOCLDY    67  48  50 S12       29.74S
6HR MIN TEMP:  67; 6HR MAX TEMP:  77;

NEBRASKA CITY  CLOUDY    67  43  41 S16G26    29.71F
PLATTSMOUTH    CLOUDY    68  46  44 S23       29.69F
$$

NEZ044-045-051>053-067-240700-
OMAHA AREA

CITY           SKY/WX    TMP DP  RH WIND       PRES   REMARKS
OMAHA EPPLEY   CLOUDY    71  49  45 S22G30    29.67R
6HR MIN TEMP:  70; 6HR MAX TEMP:  74; 6HR PCP: TRACE;

BLAIR          CLOUDY    70  51  50 S18       29.69S
FREMONT        CLOUDY    68  49  50 SW12      29.72R
MILLARD        CLOUDY    73  53  49 S12G22    29.69R
OFFUTT AFB     CLOUDY    70  49  48 S17G26    29.67R
PLATTSMOUTH    CLOUDY    68  46  44 S23       29.69F
WAHOO          FAIR      70  48  46 SW16G23   29.70R
$$




USA.gov is the U.S. government's official web portal to all federal, state and local government web resources and services.